Weather History for KLFK - March, 2014

Change the Weather History Date:

Monday, March 10, 2014

  Actual Average Record
Temperature  
Mean Temperature 62 °F 58 °F  
Max Temperature 74 °F 70 °F 89 °F (1911)
Min Temperature 50 °F 47 °F 24 °F (1932)
Degree Days  
Heating Degree Days 3 8  
Month to date heating degree days 152 89  
Since 1 July heating degree days 1955 1723  
Cooling Degree Days 0 1  
Month to date cooling degree days 8 10  
Year to date cooling degree days 26 29  
Growing Degree Days 12 (Base 50)    
Moisture  
Dew Point 52 °F    
Average Humidity 75    
Maximum Humidity 96    
Minimum Humidity 53    
Precipitation  
Precipitation 0.00 in 0.11 in 1.82 in (1928)
Month to date precipitation 0.54 1.29  
Year to date precipitation 3.36 9.34  
Snow  
Snow 0.00 in - - ()
Month to date snowfall 0.0  
Since 1 July snowfall 3.2  
Snow Depth 0.00 in    
Sea Level Pressure  
Sea Level Pressure 30.10 in    
Wind  
Wind Speed 3 mph (SSE)    
Max Wind Speed 10 mph    
Max Gust Speed 13 mph    
Visibility 5 miles    
Events Fog    
T = Trace of Precipitation, MM = Missing Value Source: NWS Daily Summary

Daily Weather History Graph

Daily Weather History Graph

Search for Another Location

Airport or City:

Trip Planner

Search our weather history database for the weather conditions in past years. The results will help you decide how hot, cold, wet, or windy it might be!

Date:

Astronomy

Mar. 10, 2014 Rise Set
Actual Time 7:35 AM CDT 7:23 PM CDT
Civil Twilight 7:10 AM CDT 7:47 PM CDT
Nautical Twilight 6:42 AM CDT 8:16 PM CDT
Astronomical Twilight 6:14 AM CDT 8:44 PM CDT
Moon 2:23 PM CDT (3/10) 3:32 AM CDT (3/10)
Length of Visible Light 12h 37m
Length of Day
11h 48m
Waxing Gibbous, 70% of the Moon is Illuminated
Mar 10
Waxing Gibbous
Mar 16
Full
Mar 23
Last Quarter
Mar 30
New
Apr 7
First Quarter

Hourly Weather History & Observations

Time (CDT) Temp. Dew Point Humidity Pressure Visibility Wind Dir Wind Speed Gust Speed Precip Events Conditions
12:53 AM 52.0 °F 48.0 °F 86% 30.21 in 3.0 mi Calm Calm - N/A   Overcast
1:13 AM 52.0 °F 48.9 °F 89% 30.21 in 1.8 mi Calm Calm - N/A   Overcast
1:30 AM 52.0 °F 48.9 °F 89% 30.21 in 0.5 mi Calm Calm - N/A Fog Fog
1:40 AM 51.1 °F 48.9 °F 92% 30.21 in 0.2 mi Calm Calm - N/A Fog Fog
1:53 AM 51.1 °F 48.9 °F 92% 30.21 in 0.2 mi Calm Calm - N/A Fog Fog
2:53 AM 51.1 °F 48.9 °F 92% 30.19 in 0.2 mi Calm Calm - N/A Fog Fog
3:53 AM 51.1 °F 48.9 °F 92% 30.17 in 0.2 mi Calm Calm - N/A Fog Fog
4:53 AM 51.1 °F 48.9 °F 92% 30.17 in 0.2 mi NNE 3.5 mph - N/A Fog Fog
5:53 AM 51.1 °F 48.0 °F 89% 30.17 in 0.2 mi Calm Calm - N/A Fog Fog
6:53 AM 50.0 °F 48.0 °F 93% 30.16 in 0.2 mi SSE 3.5 mph - N/A Fog Fog
7:53 AM 50.0 °F 48.0 °F 93% 30.15 in 0.2 mi SSE 4.6 mph - N/A Fog Fog
8:53 AM 50.0 °F 48.0 °F 93% 30.16 in 0.2 mi Calm Calm - N/A Fog Fog
9:53 AM 52.0 °F 50.0 °F 93% 30.17 in 0.2 mi Calm Calm - N/A Fog Fog
10:37 AM 52.0 °F 50.0 °F 93% 30.17 in 0.5 mi Calm Calm - N/A Fog Fog
10:45 AM 54.0 °F 51.1 °F 90% 30.17 in 2.0 mi Calm Calm - N/A   Overcast
10:53 AM 54.0 °F 51.1 °F 90% 30.17 in 4.0 mi Calm Calm - N/A   Overcast
11:38 AM 57.0 °F 52.0 °F 83% 30.17 in 9.0 mi Calm Calm - N/A   Overcast
11:53 AM 57.9 °F 52.0 °F 81% 30.15 in 10.0 mi Calm Calm - N/A   Overcast
12:18 PM 61.0 °F 53.1 °F 75% 30.14 in 10.0 mi Calm Calm - N/A   Scattered Clouds
12:53 PM 64.9 °F 54.0 °F 68% 30.10 in 10.0 mi Calm Calm - N/A   Clear
1:53 PM 70.0 °F 53.1 °F 55% 30.06 in 10.0 mi Calm Calm - N/A   Clear
2:53 PM 72.0 °F 54.0 °F 53% 30.03 in 10.0 mi South 5.8 mph - N/A   Partly Cloudy
3:53 PM 72.0 °F 55.0 °F 55% 30.00 in 10.0 mi South 8.1 mph - N/A   Overcast
4:53 PM 73.0 °F 55.9 °F 55% 29.97 in 10.0 mi SSW 8.1 mph - N/A   Overcast
5:53 PM 72.0 °F 57.0 °F 59% 29.96 in 10.0 mi SE 6.9 mph - N/A   Overcast
6:53 PM 69.1 °F 57.0 °F 65% 29.95 in 10.0 mi SE 5.8 mph - N/A   Partly Cloudy
7:53 PM 64.9 °F 57.0 °F 75% 29.94 in 10.0 mi SE 3.5 mph - N/A   Mostly Cloudy
8:53 PM 64.0 °F 57.0 °F 78% 29.96 in 10.0 mi Calm Calm - N/A   Scattered Clouds
9:53 PM 59.0 °F 55.0 °F 87% 29.95 in 10.0 mi Calm Calm - N/A   Clear
10:53 PM 57.9 °F 54.0 °F 87% 29.94 in 10.0 mi SSE 5.8 mph - N/A   Clear
11:53 PM 61.0 °F 55.9 °F 83% 29.93 in 9.0 mi SSE 4.6 mph - N/A   Clear